Time,TemperatureF,DewpointF,PressureIn,WindDirection,WindDirectionDegrees,WindSpeedMPH,WindSpeedGustMPH,Humidity,HourlyPrecipIn,Conditions,Clouds,dailyrainin,SoftwareType,DateUTC
2017-03-22 00:01:00,42.6,31.0,29.73,NW,313,0.0,5.0,65,0.00,,,0.00,weatherlink.com 1.10,2017-03-22 04:01:00,
2017-03-22 00:16:00,42.3,31.0,29.73,WNW,294,0.0,8.0,64,0.00,,,0.00,weatherlink.com 1.10,2017-03-22 04:16:00,
2017-03-22 00:31:00,42.2,30.0,29.73,NW,307,1.0,4.0,63,0.00,,,0.00,weatherlink.com 1.10,2017-03-22 04:31:00,
2017-03-22 00:46:00,41.9,30.0,29.73,NW,307,0.0,3.0,64,0.00,,,0.00,weatherlink.com 1.10,2017-03-22 04:46:00,
2017-03-22 01:01:00,41.7,30.0,29.72,NW,308,0.0,4.0,64,0.00,,,0.00,weatherlink.com 1.10,2017-03-22 05:01:00,
2017-03-22 01:16:00,41.7,30.0,29.73,NW,308,0.0,2.0,64,0.00,,,0.00,weatherlink.com 1.10,2017-03-22 05:16:00,
2017-03-22 01:31:00,41.6,30.0,29.73,NW,308,1.0,2.0,64,0.00,,,0.00,weatherlink.com 1.10,2017-03-22 05:31:00,
2017-03-22 01:46:00,41.0,30.0,29.73,NW,308,0.0,0.0,66,0.00,,,0.00,weatherlink.com 1.10,2017-03-22 05:46:00,
2017-03-22 02:01:00,39.8,31.0,29.73,NW,308,0.0,0.0,71,0.00,,,0.00,weatherlink.com 1.10,2017-03-22 06:01:00,
2017-03-22 02:16:00,38.0,29.0,29.72,NW,308,0.0,0.0,71,0.00,,,0.00,weatherlink.com 1.10,2017-03-22 06:16:00,
2017-03-22 02:31:00,35.5,29.0,29.71,NW,308,0.0,0.0,76,0.00,,,0.00,weatherlink.com 1.10,2017-03-22 06:31:00,
2017-03-22 02:46:00,34.3,28.0,29.70,NW,308,0.0,0.0,79,0.00,,,0.00,weatherlink.com 1.10,2017-03-22 06:46:00,
2017-03-22 03:01:00,33.6,28.0,29.70,NW,308,0.0,0.0,80,0.00,,,0.00,weatherlink.com 1.10,2017-03-22 07:01:00,
2017-03-22 03:16:00,33.6,28.0,29.70,NW,308,0.0,0.0,80,0.00,,,0.00,weatherlink.com 1.10,2017-03-22 07:16:00,
2017-03-22 03:31:00,33.6,28.0,29.69,NW,308,0.0,0.0,80,0.00,,,0.00,weatherlink.com 1.10,2017-03-22 07:31:00,
2017-03-22 03:46:00,33.3,28.0,29.69,NW,308,0.0,0.0,80,0.00,,,0.00,weatherlink.com 1.10,2017-03-22 07:46:00,
2017-03-22 04:01:00,32.9,28.0,29.69,NW,308,0.0,0.0,82,0.00,,,0.00,weatherlink.com 1.10,2017-03-22 08:01:00,
2017-03-22 04:16:00,31.9,27.0,29.69,NW,308,0.0,0.0,83,0.00,,,0.00,weatherlink.com 1.10,2017-03-22 08:16:00,
2017-03-22 04:31:00,31.0,27.0,29.70,NW,308,0.0,1.0,85,0.00,,,0.00,weatherlink.com 1.10,2017-03-22 08:31:00,
2017-03-22 04:47:00,31.7,29.0,29.70,West,273,0.0,4.0,89,0.00,,,0.00,weatherlink.com 1.10,2017-03-22 08:47:00,
2017-03-22 05:02:00,32.1,29.0,29.70,West,273,2.0,3.0,87,0.00,,,0.00,weatherlink.com 1.10,2017-03-22 09:02:00,
2017-03-22 05:17:00,32.5,29.0,29.70,West,273,4.0,8.0,87,0.00,,,0.00,weatherlink.com 1.10,2017-03-22 09:17:00,
2017-03-22 05:32:00,35.5,30.0,29.71,WNW,295,5.0,10.0,79,0.00,,,0.00,weatherlink.com 1.10,2017-03-22 09:32:00,
2017-03-22 05:47:00,35.6,29.0,29.72,WNW,286,2.0,11.0,76,0.00,,,0.00,weatherlink.com 1.10,2017-03-22 09:47:00,
2017-03-22 06:02:00,35.5,29.0,29.72,WNW,288,3.0,10.0,76,0.00,,,0.00,weatherlink.com 1.10,2017-03-22 10:02:00,
2017-03-22 06:17:00,35.6,28.0,29.72,WNW,295,3.0,8.0,75,0.00,,,0.00,weatherlink.com 1.10,2017-03-22 10:17:00,
2017-03-22 06:32:00,36.0,28.0,29.73,West,279,4.0,12.0,74,0.00,,,0.00,weatherlink.com 1.10,2017-03-22 10:32:00,
2017-03-22 06:47:00,36.3,28.0,29.74,SW,234,15.0,16.0,73,0.00,,,0.00,weatherlink.com 1.10,2017-03-22 10:47:00,
2017-03-22 07:02:00,36.2,28.0,29.74,West,263,7.0,15.0,72,0.00,,,0.00,weatherlink.com 1.10,2017-03-22 11:02:00,
2017-03-22 07:17:00,36.3,28.0,29.74,WSW,252,4.0,14.0,72,0.00,,,0.00,weatherlink.com 1.10,2017-03-22 11:17:00,
2017-03-22 07:32:00,36.5,28.0,29.75,WSW,254,10.0,16.0,70,0.00,,,0.00,weatherlink.com 1.10,2017-03-22 11:32:00,
2017-03-22 07:47:00,37.0,28.0,29.75,West,261,17.0,18.0,69,0.00,,,0.00,weatherlink.com 1.10,2017-03-22 11:47:00,
2017-03-22 08:02:00,37.7,28.0,29.75,WSW,251,9.0,19.0,67,0.00,,,0.00,weatherlink.com 1.10,2017-03-22 12:02:00,
2017-03-22 08:17:00,38.6,28.0,29.75,WNW,288,4.0,18.0,65,0.00,,,0.00,weatherlink.com 1.10,2017-03-22 12:17:00,
2017-03-22 08:32:00,39.2,27.0,29.75,WNW,286,20.0,24.0,63,0.00,,,0.00,weatherlink.com 1.10,2017-03-22 12:32:00,
2017-03-22 08:47:00,39.6,27.0,29.74,WSW,255,22.0,26.0,62,0.00,,,0.00,weatherlink.com 1.10,2017-03-22 12:47:00,
2017-03-22 09:02:00,40.1,29.0,29.75,West,279,5.0,26.0,64,0.00,,,0.00,weatherlink.com 1.10,2017-03-22 13:02:00,
2017-03-22 09:17:00,37.0,27.0,29.78,West,276,11.0,34.0,68,0.00,,,0.00,weatherlink.com 1.10,2017-03-22 13:17:00,
2017-03-22 09:32:00,37.0,25.0,29.78,West,276,17.0,26.0,62,0.00,,,0.00,weatherlink.com 1.10,2017-03-22 13:32:00,
2017-03-22 09:47:00,37.0,22.0,29.78,WNW,303,7.0,25.0,55,0.00,,,0.00,weatherlink.com 1.10,2017-03-22 13:47:00,
2017-03-22 10:02:00,36.4,21.0,29.79,WNW,288,14.0,28.0,53,0.00,,,0.00,weatherlink.com 1.10,2017-03-22 14:02:00,
2017-03-22 10:17:00,37.1,21.0,29.81,WSW,255,15.0,23.0,53,0.00,,,0.00,weatherlink.com 1.10,2017-03-22 14:17:00,
2017-03-22 10:32:00,36.4,21.0,29.81,West,268,23.0,25.0,53,0.00,,,0.00,weatherlink.com 1.10,2017-03-22 14:32:00,
2017-03-22 10:47:00,35.9,19.0,29.81,WNW,291,14.0,32.0,50,0.00,,,0.00,weatherlink.com 1.10,2017-03-22 14:47:00,
2017-03-22 11:02:00,35.7,19.0,29.82,WNW,286,9.0,28.0,50,0.00,,,0.00,weatherlink.com 1.10,2017-03-22 15:02:00,
2017-03-22 11:17:00,35.0,18.0,29.82,WSW,256,10.0,29.0,51,0.00,,,0.00,weatherlink.com 1.10,2017-03-22 15:17:00,
2017-03-22 11:32:00,36.2,19.0,29.83,West,273,18.0,28.0,50,0.00,,,0.00,weatherlink.com 1.10,2017-03-22 15:32:00,
2017-03-22 11:47:00,36.1,18.0,29.84,NW,315,5.0,23.0,48,0.00,,,0.00,weatherlink.com 1.10,2017-03-22 15:47:00,
2017-03-22 12:02:00,35.8,18.0,29.85,WSW,250,14.0,27.0,49,0.00,,,0.00,weatherlink.com 1.10,2017-03-22 16:02:00,
2017-03-22 12:18:00,35.5,16.0,29.86,West,260,13.0,36.0,45,0.00,,,0.00,weatherlink.com 1.10,2017-03-22 16:18:00,
2017-03-22 12:32:00,34.9,15.0,29.86,West,265,16.0,28.0,45,0.00,,,0.00,weatherlink.com 1.10,2017-03-22 16:32:00,
2017-03-22 12:48:00,34.2,16.0,29.87,West,273,7.0,27.0,47,0.00,,,0.00,weatherlink.com 1.10,2017-03-22 16:48:00,
2017-03-22 13:03:00,34.2,14.0,29.88,West,278,14.0,33.0,44,0.00,,,0.00,weatherlink.com 1.10,2017-03-22 17:03:00,
2017-03-22 13:18:00,34.6,15.0,29.88,WNW,285,12.0,25.0,45,0.00,,,0.00,weatherlink.com 1.10,2017-03-22 17:18:00,
2017-03-22 13:33:00,33.8,14.0,29.88,WSW,238,16.0,29.0,44,0.00,,,0.00,weatherlink.com 1.10,2017-03-22 17:33:00,
2017-03-22 13:48:00,34.2,15.0,29.89,West,276,11.0,21.0,45,0.00,,,0.00,weatherlink.com 1.10,2017-03-22 17:48:00,
2017-03-22 14:03:00,33.4,13.0,29.90,WNW,295,6.0,25.0,44,0.00,,,0.00,weatherlink.com 1.10,2017-03-22 18:03:00,
2017-03-22 14:18:00,33.2,12.0,29.90,West,281,17.0,30.0,41,0.00,,,0.00,weatherlink.com 1.10,2017-03-22 18:18:00,
2017-03-22 14:33:00,33.5,10.0,29.91,NW,313,15.0,28.0,38,0.00,,,0.00,weatherlink.com 1.10,2017-03-22 18:33:00,
2017-03-22 14:48:00,33.1,8.0,29.92,WNW,286,15.0,28.0,35,0.00,,,0.00,weatherlink.com 1.10,2017-03-22 18:48:00,
2017-03-22 15:03:00,33.1,8.0,29.93,West,279,11.0,24.0,35,0.00,,,0.00,weatherlink.com 1.10,2017-03-22 19:03:00,
2017-03-22 15:18:00,32.4,6.0,29.94,WNW,289,10.0,25.0,33,0.00,,,0.00,weatherlink.com 1.10,2017-03-22 19:18:00,
2017-03-22 15:33:00,31.6,6.0,29.94,NW,313,4.0,30.0,34,0.00,,,0.00,weatherlink.com 1.10,2017-03-22 19:33:00,
2017-03-22 15:48:00,31.4,6.0,29.95,WNW,292,10.0,27.0,34,0.00,,,0.00,weatherlink.com 1.10,2017-03-22 19:48:00,
2017-03-22 16:03:00,31.0,6.0,29.96,West,276,9.0,28.0,34,0.00,,,0.00,weatherlink.com 1.10,2017-03-22 20:03:00,
2017-03-22 16:18:00,31.0,7.0,29.97,WNW,286,13.0,27.0,36,0.00,,,0.00,weatherlink.com 1.10,2017-03-22 20:18:00,
2017-03-22 16:33:00,30.0,5.0,29.97,West,276,17.0,28.0,35,0.00,,,0.00,weatherlink.com 1.10,2017-03-22 20:33:00,
2017-03-22 16:48:00,30.5,6.0,29.97,WNW,296,14.0,28.0,35,0.00,,,0.00,weatherlink.com 1.10,2017-03-22 20:48:00,
2017-03-22 17:03:00,30.3,6.0,29.98,WNW,284,11.0,21.0,35,0.00,,,0.00,weatherlink.com 1.10,2017-03-22 21:03:00,
2017-03-22 17:18:00,30.2,5.0,29.99,WNW,300,6.0,23.0,34,0.00,,,0.00,weatherlink.com 1.10,2017-03-22 21:18:00,
2017-03-22 17:33:00,30.0,5.0,30.00,WNW,300,4.0,24.0,34,0.00,,,0.00,weatherlink.com 1.10,2017-03-22 21:33:00,
2017-03-22 17:48:00,29.4,5.0,30.01,WNW,290,10.0,24.0,35,0.00,,,0.00,weatherlink.com 1.10,2017-03-22 21:48:00,
2017-03-22 18:03:00,28.9,4.0,30.02,WNW,292,19.0,27.0,34,0.00,,,0.00,weatherlink.com 1.10,2017-03-22 22:03:00,
2017-03-22 18:18:00,28.6,3.0,30.03,WNW,300,18.0,23.0,34,0.00,,,0.00,weatherlink.com 1.10,2017-03-22 22:18:00,
2017-03-22 18:33:00,28.1,4.0,30.04,WNW,288,6.0,24.0,35,0.00,,,0.00,weatherlink.com 1.10,2017-03-22 22:33:00,
2017-03-22 18:48:00,27.4,4.0,30.06,WNW,293,4.0,22.0,36,0.00,,,0.00,weatherlink.com 1.10,2017-03-22 22:48:00,
2017-03-22 19:04:00,26.8,4.0,30.07,WNW,291,14.0,15.0,37,0.00,,,0.00,weatherlink.com 1.10,2017-03-22 23:04:00,
2017-03-22 19:19:00,26.4,3.0,30.09,NW,311,3.0,23.0,37,0.00,,,0.00,weatherlink.com 1.10,2017-03-22 23:19:00,
2017-03-22 19:34:00,26.0,3.0,30.10,WNW,294,4.0,12.0,38,0.00,,,0.00,weatherlink.com 1.10,2017-03-22 23:34:00,
2017-03-22 19:49:00,25.7,4.0,30.11,NW,312,4.0,17.0,39,0.00,,,0.00,weatherlink.com 1.10,2017-03-22 23:49:00,
2017-03-22 20:04:00,25.4,4.0,30.13,NW,309,5.0,17.0,39,0.00,,,0.00,weatherlink.com 1.10,2017-03-23 00:04:00,
2017-03-22 20:19:00,25.1,3.0,30.14,WNW,295,3.0,19.0,39,0.00,,,0.00,weatherlink.com 1.10,2017-03-23 00:19:00,
2017-03-22 20:34:00,24.8,2.0,30.15,WNW,298,10.0,17.0,37,0.00,,,0.00,weatherlink.com 1.10,2017-03-23 00:34:00,
2017-03-22 20:49:00,24.3,1.0,30.15,WNW,285,12.0,23.0,37,0.00,,,0.00,weatherlink.com 1.10,2017-03-23 00:49:00,
2017-03-22 21:04:00,24.0,1.0,30.16,WNW,296,6.0,28.0,37,0.00,,,0.00,weatherlink.com 1.10,2017-03-23 01:04:00,
2017-03-22 21:19:00,23.7,1.0,30.16,NNW,339,5.0,21.0,38,0.00,,,0.00,weatherlink.com 1.10,2017-03-23 01:19:00,